Flight Track Log - Related Links

Times and Time Zones

All times are in EDT time to prevent confusion due to time zone crossing. See the XOJ552 flight status page for this flight to view local times or setup timezone preferences in your user account.

Time Position Orientation Groundspeed Altitude Reporting Facility
EDT Latitude Longitude Course Direction KTS MPH feet Rate Location/Type
Sat 03:55:40 PM 26.7019 -80.0192 336° Northwest 252 290 4,700  Level Miami Center
Sat 03:56:40 PM 26.7672 -80.0000 15° North 299 344 8,700 2,650 Climbing Miami Center
Sat 03:57:40 PM 26.8258 -80.0831 308° West 366 421 10,000 1,350 Climbing Miami Center
Sat 03:58:40 PM 26.8422 -80.1953 279° West 379 436 11,400 2,550 Climbing Miami Center
Sat 03:59:40 PM 26.8708 -80.3056 286° West 371 427 15,100 2,700 Climbing Miami Center
Sat 04:00:00 PM 26.9061 -80.3447 336° Northwest  Level FlightAware Approximate
Sat 04:00:40 PM 26.8936 -80.4064 284° West 371 427 16,800  Level Miami Center
Sat 04:01:00 PM 27.0094 -80.3963 336° Northwest  Level FlightAware Approximate
Sat 04:01:40 PM 26.9203 -80.5097 286° West 384 442 17,800  Level Miami Center
Sat 04:02:40 PM 26.9525 -80.6411 285° West 390 449 19,600 2,000 Climbing Miami Center
Sat 04:03:40 PM 26.9806 -80.7631 285° West 400 460 21,800 2,400 Climbing Miami Center
Sat 04:04:40 PM 27.0106 -80.8831 286° West 400 460 24,400 2,350 Climbing Miami Center
Sat 04:05:40 PM 27.0383 -81.0075 284° West 400 460 26,500 2,100 Climbing Miami Center
Sat 04:06:40 PM 27.0703 -81.1322 286° West 405 466 28,600 2,000 Climbing Miami Center
Sat 04:07:40 PM 27.1019 -81.2617 285° West 423 487 30,500 1,900 Climbing Miami Center
Sat 04:08:40 PM 27.1367 -81.4172 284° West 445 512 32,400 1,700 Climbing Miami Center
Sat 04:09:40 PM 27.1700 -81.5561 285° West 456 525 33,900 1,550 Climbing Miami Center
Sat 04:10:40 PM 27.2033 -81.6836 286° West 472 543 35,500 1,650 Climbing Miami Center
Sat 04:11:40 PM 27.2403 -81.8228 287° West 472 543 37,200 1,950 Climbing Miami Center
Sat 04:12:40 PM 27.2789 -81.9717 286° West 463 533 39,400 1,800 Climbing Miami Center
Sat 04:13:40 PM 27.3161 -82.1017 288° West 449 517 40,800 1,350 Climbing Miami Center
Sat 04:14:40 PM 27.3489 -82.2317 286° West 442 509 42,100 1,000 Climbing Miami Center
Sat 04:15:40 PM 27.3800 -82.3500 287° West 442 509 42,800 450 Climbing Miami Center
Sat 04:16:40 PM 27.4144 -82.4803 287° West 437 503 43,000 100 Climbing Miami Center
Sat 04:17:40 PM 27.4525 -82.6294 286° West 454 522 43,000  Level Miami Center
Sat 04:18:40 PM 27.4889 -82.7622 287° West 454 522 43,000  Level Miami Center
Sat 04:19:40 PM 27.5247 -82.9022 286° West 454 522 43,000  Level Miami Center
Sat 04:20:40 PM 27.5628 -83.0378 288° West 454 522 43,000  Level Miami Center
Sat 04:21:40 PM 27.5944 -83.1728 285° West 459 528 43,000 -50 Level Miami Center
Sat 04:22:40 PM 27.6283 -83.3058 286° West 459 528 42,900  Descending Miami Center
Sat 04:23:40 PM 27.6597 -83.4364 285° West 442 509 43,000 50 Climbing Miami Center
Sat 04:24:40 PM 27.6953 -83.5697 287° West 442 509 43,000  Level Miami Center
Sat 04:25:40 PM 27.7308 -83.7006 287° West 442 509 43,000  Level Miami Center
Sat 04:26:40 PM 27.7622 -83.8339 285° West 442 509 43,000 600 Level Miami Center
Sat 04:27:40 PM 27.7953 -83.9647 286° West 442 509 44,200 774 Climbing Miami Center
Sat 04:29:15 PM 27.8494 -84.1694 287° West 433 498 45,000 310 Climbing Jacksonville Center
Sat 04:30:15 PM 27.8753 -84.3036 282° West 428 493 45,000  Level Jacksonville Center
Sat 04:31:15 PM 27.9153 -84.4356 289° West 438 504 45,000  Level Jacksonville Center
Sat 04:32:15 PM 27.9428 -84.5700 283° West 438 504 45,000  Level Jacksonville Center
Sat 04:33:15 PM 27.9767 -84.7019 286° West 438 504 45,000  Level Jacksonville Center
Sat 04:34:15 PM 28.0100 -84.8342 286° West 438 504 45,000  Level Jacksonville Center
Sat 04:35:15 PM 28.0433 -84.9736 285° West 443 510 45,000  Level Jacksonville Center
Sat 04:36:15 PM 28.0744 -85.1083 285° West 448 516 45,000  Level Jacksonville Center
Sat 04:37:15 PM 28.1075 -85.2431 286° West 438 504 45,000  Level Jacksonville Center
Sat 04:38:15 PM 28.1406 -85.3758 286° West 438 504 45,000  Level Jacksonville Center
Sat 04:39:15 PM 28.1733 -85.5131 285° West 438 504 45,000  Level Jacksonville Center
Sat 04:40:15 PM 28.2039 -85.6458 285° West 433 498 45,000  Level Jacksonville Center
Sat 04:41:15 PM 28.2367 -85.7739 286° West 440 506 45,000  Level Jacksonville Center
Sat 04:42:15 PM 28.2689 -85.9114 285° West 440 506 45,000  Level Jacksonville Center
Sat 04:43:15 PM 28.2992 -86.0467 284° West 440 506 45,000  Level Jacksonville Center
Sat 04:44:15 PM 28.3311 -86.1797 285° West 434 499 45,000  Level Jacksonville Center
Sat 04:45:15 PM 28.3592 -86.3033 284° West 434 499 45,000  Level Jacksonville Center
Sat 04:46:15 PM 28.3911 -86.4364 285° West 424 488 45,000  Level Jacksonville Center
Sat 04:47:15 PM 28.4189 -86.5650 284° West 425 489 45,000  Level Jacksonville Center
Sat 04:48:15 PM 28.4506 -86.6958 285° West 435 501 45,000  Level Jacksonville Center
Sat 04:49:15 PM 28.4797 -86.8292 284° West 435 501 45,000  Level Jacksonville Center
Sat 04:50:15 PM 28.5111 -86.9628 285° West 435 501 45,000  Level Jacksonville Center
Sat 04:51:15 PM 28.5403 -87.0939 284° West 442 509 45,000  Level Jacksonville Center
Sat 04:52:15 PM 28.5672 -87.2225 283° West 433 498 45,000  Level Jacksonville Center
Sat 04:53:15 PM 28.5983 -87.3561 285° West 433 498 45,000  Level Jacksonville Center
Sat 04:53:45 PM 28.6069 -87.3989 283° West 429 494 45,000  Level Houston Center
Sat 04:54:47 PM 28.6381 -87.5306 285° West 430 495 45,000  Level Houston Center
Sat 04:55:48 PM 28.6667 -87.6603 284° West 425 489 45,000  Level Houston Center
Sat 04:56:50 PM 28.6989 -87.8125 284° West 417 480 45,000  Level Houston Center
Sat 04:57:52 PM 28.7278 -87.9419 284° West 419 482 45,000  Level Houston Center
Sat 04:58:53 PM 28.7528 -88.0681 283° West 414 476 45,000  Level Houston Center
Sat 04:59:55 PM 28.7778 -88.1817 284° West 412 474 45,000  Level Houston Center
Sat 05:00:57 PM 28.8125 -88.3333 285° West 412 474 45,000  Level Houston Center
Sat 05:01:59 PM 28.8381 -88.4592 283° West 411 473 45,000  Level Houston Center
Sat 05:03:00 PM 28.8650 -88.5847 284° West 408 470 45,000  Level Houston Center
Sat 05:04:02 PM 28.8908 -88.7097 283° West 407 468 45,000  Level Houston Center
Sat 05:05:04 PM 28.9175 -88.8347 284° West 406 467 45,000  Level Houston Center
Sat 05:06:05 PM 28.9433 -88.9603 283° West 406 467 45,000  Level Houston Center
Sat 05:07:07 PM 28.9700 -89.0869 284° West 409 471 45,000  Level Houston Center
Sat 05:08:09 PM 29.0003 -89.2383 283° West 408 470 45,000  Level Houston Center
Sat 05:09:11 PM 29.0275 -89.3658 284° West 411 473 45,000  Level Houston Center
Sat 05:10:13 PM 29.0531 -89.4919 283° West 410 472 45,000  Level Houston Center
Sat 05:11:14 PM 29.0783 -89.6200 283° West 411 473 45,000  Level Houston Center
Sat 05:12:16 PM 29.1044 -89.7503 283° West 418 481 45,000  Level Houston Center
Sat 05:13:18 PM 29.1300 -89.8783 283° West 414 476 45,000  Level Houston Center
Sat 05:14:20 PM 29.1561 -90.0064 283° West 411 473 45,000  Level Houston Center
Sat 05:15:22 PM 29.1836 -90.1639 281° West 418 481 45,000 -49 Level Houston Center
Sat 05:16:23 PM 29.1992 -90.2967 278° West 420 483 44,900  Descending Houston Center
Sat 05:17:25 PM 29.2161 -90.4283 278° West 417 480 45,000 48 Climbing Houston Center
Sat 05:18:27 PM 29.2322 -90.5583 278° West 414 476 45,000 -48 Level Houston Center
Sat 05:19:29 PM 29.2483 -90.6881 278° West 412 474 44,900  Descending Houston Center
Sat 05:20:31 PM 29.2642 -90.8194 278° West 416 479 45,000 49 Climbing Houston Center
Sat 05:21:32 PM 29.2936 -90.9478 285° West 419 482 45,000  Level Houston Center
Sat 05:22:34 PM 29.3439 -91.0700 295° West 422 486 45,000  Level Houston Center
Sat 05:23:36 PM 29.4022 -91.2183 294° West 424 488 45,000  Level Houston Center
Sat 05:24:38 PM 29.4522 -91.3408 295° West 424 488 45,000  Level Houston Center
Sat 05:25:40 PM 29.5011 -91.4636 295° West 424 488 45,000  Level Houston Center
Sat 05:26:42 PM 29.5494 -91.5867 294° West 422 486 45,000  Level Houston Center
Sat 05:27:43 PM 29.6058 -91.7281 295° West 424 488 45,000  Level Houston Center
Sat 05:28:45 PM 29.6486 -91.8383 294° West 427 491 45,000  Level Houston Center
Sat 05:29:47 PM 29.6967 -91.9617 294° West 426 490 45,000 -726 Level Houston Center
Sat 05:30:49 PM 29.7569 -92.1089 295° West 424 488 43,500 -1,694 Descending Houston Center
Sat 05:31:51 PM 29.8042 -92.2306 294° West 419 482 41,500 -1,951 Descending Houston Center
Sat 05:32:52 PM 29.8539 -92.3569 294° West 431 496 39,500 -2,000 Descending Houston Center
Sat 05:33:54 PM 29.9022 -92.4850 294° West 437 503 37,400 -2,081 Descending Houston Center
Sat 05:34:56 PM 29.9542 -92.6167 295° West 448 516 35,200 -2,146 Descending Houston Center
Sat 05:35:57 PM 30.0047 -92.7497 294° West 451 519 33,000 -2,195 Descending Houston Center
Sat 05:36:59 PM 30.0567 -92.8833 294° West 456 525 30,700 -2,565 Descending Houston Center
Sat 05:38:01 PM 30.1075 -93.0186 294° West 459 528 27,700 -3,097 Descending Houston Center
Sat 05:39:03 PM 30.1422 -93.1856 284° West 448 516 24,300 -2,683 Descending Houston Center
Sat 05:40:04 PM 30.1489 -93.3258 273° West 436 502 22,200 -2,000 Descending Houston Center
Sat 05:41:06 PM 30.1533 -93.4628 272° West 424 488 20,200 -1,984 Descending Houston Center
Sat 05:42:08 PM 30.1583 -93.5981 272° West 417 480 18,100 -2,107 Descending Houston Center
Sat 05:43:17 PM 30.1650 -93.7447 273° West 393 452 15,600 -1,951 Descending Houston Center
Sat 05:44:11 PM 30.1678 -93.8475 272° West 375 432 14,100 -1,722 Descending Houston Center
Sat 05:45:12 PM 30.1714 -93.9647 272° West 365 420 12,300 -1,707 Descending Houston Center
Sat 05:46:14 PM 30.1747 -94.0789 272° West 354 407 10,600 -1,154 Descending Houston Center
Sat 05:47:22 PM 30.1900 -94.2181 277° West 348 400 9,800 -390 Descending Houston Center
Sat 05:48:17 PM 30.2081 -94.3008 284° West 352 405 9,800  Level Houston Center
Sat 05:49:19 PM 30.2325 -94.4369 282° West 358 412 9,800  Level Houston Center
Sat 05:50:20 PM 30.2567 -94.5444 285° West 362 417 9,800  Level Houston Center
Sat 05:51:22 PM 30.2839 -94.6569 286° West 364 419 9,800 -387 Level Houston Center
Sat 05:52:24 PM 30.3100 -94.7525 288° West 322 371 9,000 -1,455 Descending Houston Center
Sat 05:53:34 PM 30.3336 -94.8722 283° West 288 331 6,600 -1,818 Descending Houston Center
Sat 05:54:36 PM 30.3461 -94.9603 279° West 282 325 5,000 -789 Descending Houston Center
Sat 05:55:28 PM 30.3597 -95.0394 281° West 285 328 5,100  Climbing Houston Center
Sat 05:56:30 PM 30.3744 -95.1322 280° West 294 338 5,000 -634 Descending Houston Center
Sat 05:57:31 PM 30.3900 -95.2219 281° West 289 333 3,800 -1,220 Descending Houston Center
Sat 05:58:33 PM 30.4053 -95.3083 282° West 280 322 2,500 -926 Descending Houston Center
Sat 05:59:47 PM 30.4164 -95.4022 278° West 187 215 1,700 -585 Descending Houston Center
Sat 06:00:36 PM 30.4000 -95.4367 241° Southwest 208 239 1,300 -490 Descending Houston Center

Login

Don't have an account? Register now (free) for customized features, flight alerts, and more!